PILOTS ONLINE: 338    ATC ONLINE: 45

KTOA

Zamperini Field

Location

City Torrance
Country  United States
Latitude 33° 48' 12" N
Longitude 118° 20' 23" W
Elevation 103 ft
Type Small Airport

Map

Weather

METAR
2014/09/22 13:49
KTOA 221349Z 00000KT 7SM FEW020 16/15 A2997
TAF
No TAF available

Runways

11L/29R 5001 ft / 150 ft
11R/29L 3000 ft / 75 ft

Outbound flights

Callsign Flying to Pilot ATD/STD ETA Aircraft

Inbound flights

Callsign Flying from Pilot ATD ETA Aircraft